World > North America > United States > Utah

Hourly Wendover, UT Regional Weather

Feedback E-mail the Weather

Quick WX

Wendover, UT Weather Maps

°F °C°F °C
Wendover Weather Map
UTC Time: 7/3/2022, 14:30
Your Time:

Wendover, UT Regional Weather

Expires:202207031500;;611496
ASUS45 KSLC 031410
RWRUT 

UTAH REGIONAL WEATHER ROUNDUP
NATIONAL WEATHER SERVICE SALT LAKE CITY UT
800 AM MDT SUN JUL 03 2022


UTZ101>105-107>111-031500-

NORTHERN UTAH
  
CITY           SKY/WX    TMP DP  RH WIND       PRES   REMARKS
BRIGHAM CITY   SUNNY     83  25  12 MISG      29.86R                  
HILL AFB       SUNNY     78  37  23 S17       29.88S                  
LOGAN          SUNNY     81  36  19 S14       29.85R                  
OGDEN          SUNNY     83  35  18 S20G28    29.87R                  
SALT LAKE CITY MOSUNNY   82  39  21 S20G30    29.87R                  
TOOELE VALLEY  SUNNY     82  41  23 S21G30    29.88S                  
WENDOVER       SUNNY     76  32  20 E3        29.86R                  
HEBER CITY       N/A     66  43  42 CALM      30.00S                  
WEST JORDAN    MOSUNNY   76  47  36 SE12      29.93R                  

$$


SKY/WX - Weather  TMP - Temperature  DP - Dew Point  RH - Humidity
WIND - Wind Direction/Speed PRES - Barometric Pressure VSB - Visibility
WCI - Wind Chill Index E13G22 Wind - East Wind 13 mph/Gusts of 22 mph

Trending Headlines

Wendover Radar Loop



Wendover Quick Facts


National Two Day Weather Forecast


E-mail the Wendover Weather Forecast

Voice your opinion or tell us about page issues...